N0MR Weather Reports


time (UTC)temp
C
wind
direction
speed
KPH
gust
KPH
rain 1hr
cm
rain 24hr
cm
rain mn
cm
humidity
%
barometer
mb
20260507094130 -1 290 0.0 1.6 0.00 0.00 0.00 82 1012.0
20260507093131 -1 290 0.0 1.6 0.00 0.00 0.00 82 1012.0
20260507092131 -1 290 0.0 1.6 0.00 0.00 0.00 81 1012.0
20260507091131 -1 290 0.0 1.6 0.00 0.00 0.00 81 1012.0
20260507090131 0 290 0.0 1.6 0.00 0.00 0.00 80 1012.1
20260507085134 0 290 0.0 0.0 0.00 0.00 0.00 79 1012.2
20260507084132 0 290 0.0 0.0 0.00 0.00 0.00 79 1012.2
20260507083131 0 290 0.0 1.6 0.00 0.00 0.00 77 1012.3
20260507082131 0 290 0.0 1.6 0.00 0.00 0.00 77 1012.3
20260507081133 0 290 0.0 1.6 0.00 0.00 0.00 76 1012.3
20260507080133 0 290 0.0 1.6 0.00 0.00 0.00 76 1012.3
20260507075132 1 290 0.0 1.6 0.00 0.00 0.00 75 1012.3
20260507074130 1 290 0.0 1.6 0.00 0.00 0.00 75 1012.3
20260507073132 1 290 0.0 3.2 0.00 0.00 0.00 76 1012.4
20260507072131 1 290 0.0 3.2 0.00 0.00 0.00 76 1012.4
20260507071130 1 290 0.0 3.2 0.00 0.00 0.00 76 1012.6
20260507070131 1 290 0.0 3.2 0.00 0.00 0.00 76 1012.6
20260507065130 1 290 0.0 3.2 0.00 0.00 0.00 76 1012.7
20260507064130 1 290 0.0 3.2 0.00 0.00 0.00 76 1012.7
20260507063131 1 290 3.2 6.4 0.00 0.00 0.00 76 1012.9
20260507062131 1 290 3.2 6.4 0.00 0.00 0.00 76 1012.9
20260507061131 1 285 3.2 6.4 0.00 0.00 0.00 75 1013.1
20260507060132 1 285 3.2 6.4 0.00 0.00 0.00 75 1013.1
20260507055132 1 304 0.0 9.7 0.00 0.00 0.00 74 1013.2
20260507054133 1 302 1.6 6.4 0.00 0.00 0.00 74 1013.3
20260507053131 1 302 1.6 6.4 0.00 0.00 0.00 74 1013.3
20260507052131 1 302 0.0 6.4 0.00 0.00 0.00 74 1013.4
20260507051131 1 302 0.0 6.4 0.00 0.00 0.00 74 1013.4
20260507050131 1 277 3.2 3.2 0.00 0.00 0.00 73 1013.5
20260507045133 1 277 3.2 3.2 0.00 0.00 0.00 73 1013.5
20260507044131 1 287 0.0 1.6 0.00 0.00 0.00 73 1013.6
20260507043131 1 287 0.0 1.6 0.00 0.00 0.00 73 1013.6
20260507042132 1 254 0.0 6.4 0.00 0.00 0.00 72 1013.7
20260507041133 1 254 0.0 6.4 0.00 0.00 0.00 72 1013.7
20260507040132 1 270 0.0 3.2 0.00 0.00 0.00 72 1013.9
20260507035132 1 270 0.0 3.2 0.00 0.00 0.00 72 1013.9
20260507034133 1 269 1.6 3.2 0.00 0.00 0.00 71 1014.0
20260507033132 1 269 1.6 3.2 0.00 0.00 0.00 71 1014.0
20260507032132 2 273 1.6 6.4 0.00 0.00 0.00 70 1014.1
20260507031131 2 273 1.6 6.4 0.00 0.00 0.00 70 1014.1
20260507030132 2 273 0.0 8.0 0.00 0.00 0.00 69 1014.1
20260507025133 2 273 0.0 8.0 0.00 0.00 0.00 69 1014.1
20260507024133 2 257 1.6 8.0 0.00 0.00 0.00 69 1014.1
20260507023132 2 46 1.6 8.0 0.00 0.00 0.00 69 1014.1
20260507022133 2 46 1.6 8.0 0.00 0.00 0.00 69 1014.1
20260507021133 2 257 4.8 9.7 0.00 0.00 0.00 68 1014.0
20260507020135 2 257 4.8 9.7 0.00 0.00 0.00 68 1014.0
20260507015133 2 291 1.6 12.9 0.00 0.00 0.00 67 1013.9
20260507014134 2 291 1.6 12.9 0.00 0.00 0.00 67 1013.9
20260507013132 2 212 1.6 16.1 0.00 0.00 0.00 65 1013.8
20260507012132 2 212 1.6 16.1 0.00 0.00 0.00 65 1013.8
20260507011133 2 274 3.2 9.7 0.00 0.00 0.00 64 1013.7
20260507010133 2 274 3.2 9.7 0.00 0.00 0.00 64 1013.7
20260507004133 3 286 3.2 9.7 0.00 0.00 0.00 62 1013.8
20260507003134 3 264 3.2 12.9 0.00 0.00 0.00 61 1013.8
20260507002133 3 264 3.2 12.9 0.00 0.00 0.00 61 1013.8
20260507001133 3 217 3.2 14.5 0.00 0.00 0.00 59 1013.9
20260507000136 3 217 3.2 14.5 0.00 0.00 0.00 59 1013.9
20260506235134 3 219 3.2 14.5 0.00 0.00 0.00 59 1013.9
20260506234140 3 219 3.2 14.5 0.00 0.00 0.00 59 1013.9
20260506233133 3 33 0.0 11.3 0.00 0.00 0.00 58 1014.0
20260506232134 3 340 6.4 11.3 0.00 0.00 0.00 57 1013.9
20260506231134 3 340 6.4 11.3 0.00 0.00 0.00 57 1013.9
20260506224133 4 268 1.6 9.7 0.00 0.00 0.00 55 1013.7
20260506223135 4 268 1.6 9.7 0.00 0.00 0.00 55 1013.7
20260506222134 4 317 1.6 17.7 0.00 0.00 0.00 54 1013.7
20260506221135 4 317 1.6 17.7 0.00 0.00 0.00 54 1013.7
20260506220134 4 329 1.6 14.5 0.00 0.00 0.00 56 1013.8
20260506214135 4 221 4.8 14.5 0.00 0.00 0.00 55 1013.7
20260506213135 4 221 4.8 14.5 0.00 0.00 0.00 55 1013.7
20260506212134 4 351 3.2 12.9 0.00 0.00 0.00 56 1013.9
20260506211135 4 351 3.2 12.9 0.00 0.00 0.00 56 1013.9
20260506210134 4 323 8.0 14.5 0.00 0.00 0.00 54 1014.0
20260506205134 4 323 8.0 14.5 0.00 0.00 0.00 54 1014.0
20260506204135 4 319 9.7 14.5 0.00 0.00 0.00 54 1013.9
20260506203134 4 319 9.7 14.5 0.00 0.00 0.00 54 1013.9
20260506202134 4 246 4.8 17.7 0.00 0.00 0.00 54 1014.0
20260506201135 3 222 8.0 11.3 0.00 0.00 0.00 56 1014.1
20260506200135 3 222 8.0 11.3 0.00 0.00 0.00 56 1014.1
20260506195134 4 298 6.4 12.9 0.00 0.00 0.00 52 1014.2
20260506194134 4 298 6.4 12.9 0.00 0.00 0.00 52 1014.2
20260506193135 3 39 3.2 11.3 0.00 0.00 0.00 56 1014.1
20260506192135 3 39 3.2 11.3 0.00 0.00 0.00 56 1014.1
20260506191136 3 336 6.4 12.9 0.00 0.00 0.00 55 1014.2
20260506190136 3 336 6.4 12.9 0.00 0.00 0.00 55 1014.2
20260506185135 3 312 1.6 16.1 0.00 0.00 0.00 59 1014.3
20260506184136 3 312 1.6 16.1 0.00 0.00 0.00 59 1014.3
20260506183135 3 109 8.0 16.1 0.00 0.00 0.00 59 1014.3
20260506182135 3 109 8.0 16.1 0.00 0.00 0.00 59 1014.3
20260506181136 2 355 8.0 19.3 0.00 0.00 0.00 61 1014.3
20260506180136 2 355 8.0 19.3 0.00 0.00 0.00 61 1014.3
20260506174135 2 31 8.0 17.7 0.00 0.00 0.00 63 1014.5
20260506172136 2 355 1.6 12.9 0.00 0.00 0.00 63 1014.5
20260506171135 2 300 3.2 16.1 0.00 0.00 0.00 61 1014.6
20260506170136 2 243 3.2 12.9 0.00 0.00 0.00 60 1014.6
20260506165136 2 243 3.2 12.9 0.00 0.00 0.00 60 1014.6
20260506164136 2 322 1.6 14.5 0.00 0.00 0.00 59 1014.4
20260506163136 2 322 1.6 14.5 0.00 0.00 0.00 59 1014.4
20260506162135 2 298 8.0 12.9 0.00 0.00 0.00 59 1014.5
20260506161136 2 298 8.0 12.9 0.00 0.00 0.00 59 1014.5
20260506160136 2 189 4.8 12.9 0.00 0.00 0.00 61 1014.5
20260506155135 2 189 4.8 12.9 0.00 0.00 0.00 61 1014.5
20260506154135 2 277 1.6 12.9 0.00 0.00 0.00 60 1014.4
20260506153137 2 277 1.6 12.9 0.00 0.00 0.00 60 1014.4
20260506152137 1 355 3.2 14.5 0.00 0.00 0.00 63 1014.6
20260506151137 1 355 3.2 14.5 0.00 0.00 0.00 63 1014.6
20260506150137 1 348 3.2 12.9 0.00 0.00 0.00 64 1014.6
20260506145137 1 348 3.2 12.9 0.00 0.00 0.00 64 1014.6
20260506144136 1 350 4.8 12.9 0.00 0.00 0.00 66 1014.7
20260506143136 1 350 4.8 12.9 0.00 0.00 0.00 66 1014.7
20260506142140 1 236 3.2 11.3 0.00 0.00 0.00 68 1014.5
20260506141137 1 236 3.2 11.3 0.00 0.00 0.00 68 1014.5
20260506140137 0 280 3.2 12.9 0.00 0.00 0.00 70 1014.5
20260506135137 0 333 1.6 12.9 0.00 0.00 0.00 71 1014.5
20260506134137 0 333 1.6 12.9 0.00 0.00 0.00 71 1014.5
20260506133136 0 315 6.4 16.1 0.00 0.00 0.00 72 1014.5
20260506132137 0 315 6.4 16.1 0.00 0.00 0.00 72 1014.5
20260506131137 0 342 6.4 14.5 0.00 0.00 0.00 73 1014.5
20260506130138 0 342 6.4 14.5 0.00 0.00 0.00 73 1014.5
20260506125138 0 311 3.2 11.3 0.00 0.00 0.00 73 1014.3
20260506124137 0 311 3.2 11.3 0.00 0.00 0.00 73 1014.3
20260506123138 0 290 1.6 9.7 0.00 0.00 0.00 75 1014.0
20260506122138 0 290 1.6 9.7 0.00 0.00 0.00 75 1014.0
20260506121138 -1 317 3.2 9.7 0.00 0.00 0.00 75 1013.8
20260506120138 -1 317 3.2 9.7 0.00 0.00 0.00 75 1013.8
20260506115138 -1 295 1.6 9.7 0.00 0.00 0.00 76 1013.6
20260506114138 -1 295 1.6 9.7 0.00 0.00 0.00 76 1013.6
20260506113138 -1 5 3.2 11.3 0.00 0.00 0.00 76 1013.5
20260506112137 -1 5 3.2 11.3 0.00 0.00 0.00 76 1013.5
20260506111138 -1 333 8.0 11.3 0.00 0.00 0.00 76 1013.4
20260506110138 -1 333 8.0 11.3 0.00 0.00 0.00 76 1013.4
20260506105139 -1 315 1.6 11.3 0.00 0.00 0.00 75 1013.4
20260506104138 -1 310 1.6 8.0 0.00 0.00 0.00 75 1013.4
20260506103138 -1 310 1.6 8.0 0.00 0.00 0.00 75 1013.4
20260506102139 -1 297 3.2 9.7 0.00 0.00 0.00 75 1013.5
20260506101137 -1 297 3.2 9.7 0.00 0.00 0.00 75 1013.5
20260506100138 -1 265 1.6 8.0 0.00 0.00 0.00 75 1013.4